Regional Weather Roundup
Issued by NWS Charleston, SC

Current Version | Previous Version | Graphics & Text | Print | Product List | Glossary On
Versions: 1 2 3 4 5 6 7 8 9 10 11 12 13 14 15 16 17 18 19 20 21 22 23 24 25 26 27 28 29 30 31 32 33 34 35 36 37 38 39 40 41 42 43 44 45 46 47 48 49 50
000
ASUS42 KCHS 240628
RWRCHS

REGIONAL WEATHER ROUNDUP
NATIONAL WEATHER SERVICE CHARLESTON SC
200 AM EDT SUN JUL 24 2016

NOTE: "FAIR" INDICATES FEW OR NO CLOUDS BELOW 12,000 FEET WITH NO
SIGNIFICANT WEATHER AND/OR OBSTRUCTIONS TO VISIBILITY.

NOT ALL STATIONS ARE QUALITY CONTROLLED. USE DATA WITH CAUTION...
ESPECIALLY DEWPOINT OBSERVATIONS.

SCZ027-030-031-034>040-042>050-240700-
...SOUTHEAST SOUTH CAROLINA...

CITY           SKY/WX    TMP DP  RH WIND       PRES   REMARKS
N CHARLESTON   PTCLDY    80  75  84 S6        30.02S
6HR MIN TEMP:  80; 6HR MAX TEMP:  86;

WATERFRONT PRK   N/A     84  77  79 VRB3      30.00R HX  94
MOUNT PLEASANT FAIR      82  77  83 CALM      30.02S HX  91
JOHNS ISLAND   FAIR      82  77  83 SW3       30.02F HX  91
PINOPOLIS        N/A     81  75  83 VRB3      29.95S
MONCKS CORNER  FAIR      75  73  94 CALM      30.01F
SUMMERVILLE    NOT AVBL
BEAUFORT MCAS  CLEAR     83  76  79 S5        30.02S HX  91
6HR MIN TEMP:  83; 6HR MAX TEMP:  88;

BEAUFORT ARPT  FAIR      82  77  83 CALM      30.02S HX  91
HILTON HEAD IS CLEAR     84  77  79 S6        30.03S HX  94
WALTERBORO     CLEAR     79  79 100 SW3       30.02F
ALLENDALE      FAIR      77  73  88 CALM      30.02F

...SOUTHERN MIDLANDS AND PEE DEE...

CITY           SKY/WX    TMP DP  RH WIND       PRES   REMARKS
GEORGETOWN     FAIR      75  73  94 CALM      30.03S
KINGSTREE      FAIR      75  72  88 CALM      30.01S
ORANGEBURG     PTCLDY    79  73  82 SW6       30.02F
6HR MIN TEMP:  78; 6HR MAX TEMP:  87;

BARNWELL       NOT AVBL
AIKEN          FAIR      75  70  83 CALM      30.07R
MANNING        FAIR      81  73  78 SW7       30.02S
COLUMBIA       CLEAR     78  72  81 S3        30.00F
6HR MIN TEMP:  77; 6HR MAX TEMP:  87;

SUMTER         CLEAR     78  74  87 S5        29.99S
6HR MIN TEMP:  78; 6HR MAX TEMP:  85;

FLORENCE       CLEAR     79  75  87 S5        30.02R
6HR MIN TEMP:  79; 6HR MAX TEMP:  87;

MYRTLE BEACH   PTCLDY    81  70  69 SW3       30.04R
N MYRTLE BEACH CLOUDY    82  77  84 SW6       30.01S HX  90
6HR MIN TEMP:  79; 6HR MAX TEMP:  84;


$$

GAZ063-065-086>088-099>101-113>116-118-119-134>141-150-240700-
...SOUTHEAST GEORGIA...

CITY           SKY/WX    TMP DP  RH WIND       PRES   REMARKS
SAVANNAH ARPT  CLEAR     80  73  79 SW6       30.03R
6HR MIN TEMP:  80; 6HR MAX TEMP:  86;

HUNTER AAF     CLEAR     80  78  93 S5        30.00S
6HR MIN TEMP:  80; 6HR MAX TEMP:  85;

FORT STEWART   PTCLDY    78  72  82 CALM      30.01S
6HR MIN TEMP:  78; 6HR MAX TEMP:  87;

STATESBORO     PTCLDY    77  75  92 CALM      30.02F
SYLVANIA       NOT AVBL
CLAXTON        FAIR      76  74  94 CALM      30.02F

...CSRA...CENTRAL AND FAR SOUTHEAST GEORGIA...

CITY           SKY/WX    TMP DP  RH WIND       PRES   REMARKS
THOMSON        PTCLDY    76  75  97 CALM      30.07S
AUGUSTA-BUSH   PTCLDY    74  72  93 CALM      30.01S
6HR MIN TEMP:  73; 6HR MAX TEMP:  90; 6HR PCP:  0.02;

AUGUSTA-DANIEL PTCLDY    81  71  71 SE3       30.03S
SWAINSBORO     FAIR      75  72  88 CALM      30.04S
VIDALIA        MOCLDY    77  70  78 S3        30.03S
EASTMAN        FAIR      75  75 100 S3        30.05S
HAZLEHURST     FAIR      77  75  95 CALM      30.02F
ALMA           CLEAR     78  72  81 CALM      30.02S
6HR MIN TEMP:  75; 6HR MAX TEMP:  82;

WAYCROSS       MOCLDY    82  75  80 S6        30.02F
JESUP          FAIR      77  77 100 CALM      30.03F
BAXLEY         FAIR      77  77 100 CALM      30.02F
BRUNSWICK      CLEAR     82  77  83 SW7       30.04S HX  91
SAINT SIMONS   CLEAR     83  75  77 SW10      30.03S HX  90
6HR MIN TEMP:  83; 6HR MAX TEMP:  86;


$$

SCZ027-028-034-036>038-045-046-048>050-GAZ119-141-240700-
...LAKE AND SUPPLEMENTAL COASTAL OBSERVATIONS...

STATION/POSITION TIME  TEMP    WIND        PRES    WAVE   SWELL
                       AIR SEA DIR/SP/G            HT/PER HT/PER/DIR
                 (UTC) (F)     (DEG/KT/KT) (MB)    (FT/S) (FT/S/D)
WINYAH BAY       0545   81     250/  3     1016.0S
LAKE MURRAY      0500   83     180/  3/  5 1015.6R
ACE BASIN NERRS  0500   82        CALM     1017.0R
FORT PULASKI     0600   83 88  220/  3/  6 1017.1R
SAPELO ISLAND    0600   83     210/  7     1017.0S

$$

ANZ835-935-AMZ111-154-330-350-352-354-370-450-454-472-240700-
...C-MAN AND BUOY OBSERVATIONS...

STATION/POSITION TIME  TEMP    WIND        PRES    WAVE   SWELL
                       AIR SEA DIR/SP/G            HT/PER HT/PER/DIR
                 (UTC) (F)     (DEG/KT/KT) (MB)    (FT/S) (FT/S/D)
BUOY 41004       0550   85 86  200/ 12/ 16 1016.1R   3/ 8   2/130/ 8
BUOY 41008       0550   85 86  180/ 14/ 16 1016.8R   2/10   2/110/10
FOLLY BEACH CMAN 0600   84     210/ 15/ 17 1016.7S
CAPERS NEARSHORE 0608   84 84  230/ 14/ 19 1016.5R
FRIPP NEARSHORE  0608   85 86  220/ 14/ 17 1015.9F


STATION/POSITION TIME  TEMP    WIND        PRES    WAVE   SWELL
                       AIR SEA DIR/SP/G            HT/PER HT/PER/DIR
                 (UTC) (F)     (DEG/KT/KT) (MB)    (FT/S) (FT/S/D)
5E ST. MARYS GA  0601      86                N/A     3/ 4
FRYING PAN BUOY  0600   84 85  190/ 12/ 14 1016.3R
BUOY 41025       0550   84 85  220/ 14/ 16 1016.4R   3/ 4   2/110/ 9
CAPE LOOKOUT NC  0600   83     210/  8/ 10 1016.2R
BUOY 41002       0550   83 84  160/  2/  2 1017.4F   3/ 8   2/110/ 8
BUOY 41010       0520   84 86  210/  4/  6 1017.4F
ST AUGUSTINE FL  0600   79 87  210/  6/  7 1018.0F


$$




USA.gov is the U.S. government's official web portal to all federal, state and local government web resources and services.